Theta_e
326 328 339 339 340 339 339 338 338 339 338 338 338 338 338 339 339 339 338 336 334 331 330 330 331 332 333 334 334 333 332 333 333 334 335 335 335 335 336 337 338 338 338 337 336 335 333 332 332 332 331 330 329 330 329 330 330 331 331 331 330 330 331 330 331 332 331 332 332 333 332 332 332 332 331 330 329 328 328 326 324 327 329 326 324
326 331 339 338 339 339 340 338 337 337 339 339 338 338 338 338 338 338 335 334 335 333 332 333 334 334 334 333 332 332 332 332 332 333 333 333 333 334 334 335 336 336 335 335 335 334 333 333 331 330 330 330 330 330 330 330 330 330 330 330 330 330 331 330 330 330 330 329 330 331 331 331 331 331 331 330 327 326 327 325 322 325 328 324 321
325 334 337 337 338 338 339 337 336 335 338 339 338 337 338 338 337 336 334 335 336 334 333 333 334 334 334 332 332 332 332 332 332 333 333 332 332 332 332 333 334 334 334 334 334 333 333 332 330 329 329 329 329 329 329 329 329 329 328 328 329 330 330 330 329 328 328 328 328 329 330 330 331 330 329 328 326 325 325 324 322 324 326 324 322
327 335 335 337 337 336 337 336 335 333 335 337 337 337 337 338 337 336 335 336 335 334 333 332 333 333 332 332 332 331 332 332 332 332 332 332 332 332 332 332 332 333 333 334 334 334 332 330 331 332 331 330 328 327 327 328 328 328 328 328 328 329 329 328 328 328 328 328 328 328 327 328 330 329 328 327 325 326 325 322 322 324 324 322 323
330 336 335 336 335 336 334 333 333 332 335 336 337 337 337 337 336 335 335 336 336 335 333 333 333 333 332 331 331 331 332 331 332 332 332 332 331 332 331 331 332 332 333 333 333 333 331 329 331 332 331 329 326 324 325 327 328 328 328 328 327 327 327 327 326 327 327 326 326 325 324 324 327 328 327 326 324 324 325 324 323 324 323 321 323
332 336 335 336 335 334 332 333 332 333 336 336 337 336 337 337 337 335 334 336 336 335 333 334 334 333 332 332 332 332 332 331 331 332 332 332 332 332 331 331 331 332 332 332 333 332 330 329 330 330 329 329 326 323 324 326 326 325 325 325 324 324 323 322 321 322 322 322 322 321 322 323 326 327 326 326 325 323 324 325 325 325 323 323 323
331 334 335 335 334 332 332 334 332 334 336 337 337 336 337 337 338 336 335 335 335 334 334 333 331 330 331 331 332 332 331 331 331 331 331 331 331 331 331 331 331 331 331 332 333 332 330 330 331 329 329 329 327 324 323 324 324 323 323 323 323 323 321 320 318 318 318 318 320 321 323 324 325 326 326 325 324 323 324 324 324 324 324 323 322
331 334 334 332 331 332 333 333 334 335 336 337 337 337 338 337 337 336 334 333 333 334 333 332 330 329 331 331 332 331 330 330 330 329 330 330 330 330 330 330 330 330 330 331 332 331 330 331 331 329 331 331 329 326 324 324 324 324 324 324 323 323 321 320 319 319 319 319 321 323 324 324 325 326 327 325 322 322 323 323 323 323 323 322 322
331 333 332 331 332 334 333 333 335 336 336 337 337 337 337 336 336 336 334 332 333 334 332 331 329 330 331 332 331 330 328 329 329 329 329 329 329 329 330 330 329 330 330 330 330 331 330 330 330 329 330 330 330 327 325 324 324 324 324 324 323 323 322 321 321 321 320 321 323 323 323 324 325 325 326 325 322 321 322 322 322 322 322 322 322
330 332 331 331 334 334 332 333 335 335 337 336 336 337 336 335 335 336 334 331 332 332 331 330 330 331 331 331 331 330 328 329 330 330 330 330 329 329 329 329 329 330 330 330 330 331 330 329 330 329 328 327 328 327 326 325 324 324 324 324 324 323 322 322 322 321 320 321 322 322 323 324 325 325 324 323 323 322 321 320 321 322 321 322 321
327 331 331 333 334 333 334 335 335 335 336 336 337 336 335 335 334 333 332 331 331 331 330 330 331 330 330 332 331 331 330 330 330 330 330 330 330 329 330 329 330 329 329 329 330 330 330 330 329 329 328 327 327 326 326 325 324 324 324 324 324 324 323 323 323 321 321 321 322 322 323 324 325 325 323 322 322 322 321 319 321 321 321 321 320
325 330 332 334 333 334 335 335 335 335 335 336 336 335 333 332 332 330 329 330 330 330 329 330 330 330 331 330 329 330 328 328 328 329 330 329 329 328 329 329 329 329 329 329 329 330 330 330 329 328 328 327 327 325 324 324 324 324 324 325 324 324 324 323 323 322 321 320 322 323 323 324 324 325 324 322 322 322 321 321 321 321 321 321 320
324 331 333 333 333 334 333 334 335 335 336 336 335 333 331 331 332 331 329 330 330 330 330 330 329 331 332 327 326 327 325 324 325 328 327 327 327 327 327 328 328 328 328 328 329 329 329 329 328 327 327 326 326 325 324 324 324 324 325 325 324 324 324 324 323 322 322 321 321 322 322 323 324 325 324 323 322 321 321 321 321 320 320 320 320
325 332 333 332 331 332 330 331 334 335 336 335 334 333 332 331 332 332 330 330 330 330 329 329 328 329 330 327 326 327 326 324 323 324 327 327 326 326 327 328 327 327 326 326 328 328 329 329 328 327 326 325 325 325 324 324 324 325 325 324 324 324 325 324 323 323 322 321 321 321 321 322 324 325 324 323 322 321 321 321 321 320 320 321 320
327 332 332 332 330 330 329 329 332 335 336 335 335 334 333 331 330 330 330 330 329 328 328 328 328 327 328 330 329 328 328 327 324 322 324 326 326 326 327 327 327 328 327 327 327 327 327 328 328 326 325 324 324 325 325 325 325 325 325 325 325 325 325 324 324 323 323 322 321 322 322 322 323 325 324 324 323 321 322 321 321 321 321 321 320
329 332 331 332 331 331 330 330 331 333 334 335 335 334 333 331 329 327 327 328 328 326 326 328 329 327 327 331 331 329 328 327 325 322 321 324 326 327 327 327 326 326 325 325 326 326 326 326 327 326 325 324 324 324 325 325 325 325 325 325 325 325 324 324 324 324 323 323 322 322 322 322 322 325 325 324 324 323 323 322 322 322 321 321 320
329 332 332 331 331 331 330 331 331 330 331 334 335 334 333 331 330 328 326 327 327 325 324 328 329 328 327 330 330 328 326 325 325 324 322 323 324 324 325 326 325 325 325 325 325 324 324 324 325 325 324 324 324 324 324 324 325 325 325 325 325 324 323 324 324 324 324 324 323 322 322 322 322 324 325 325 325 325 324 323 322 322 321 321 321
330 332 332 332 332 332 331 331 331 329 330 332 334 333 332 331 330 329 327 325 325 324 323 326 328 328 327 327 328 327 326 327 325 323 323 321 321 320 319 320 321 321 322 323 322 320 321 321 322 322 322 322 322 323 323 323 324 324 324 324 324 323 323 323 323 323 323 323 323 323 322 323 322 323 325 325 325 325 325 323 323 322 322 321 321
331 332 331 332 331 331 331 331 330 329 329 331 332 331 330 329 329 329 327 324 323 324 324 325 327 328 326 325 326 326 326 327 325 323 322 322 320 318 316 315 316 317 317 317 317 318 319 319 319 319 319 319 319 320 321 322 322 322 323 323 323 322 323 322 321 321 321 321 321 322 322 322 322 323 325 325 326 326 325 324 323 323 323 322 321
330 331 331 331 331 331 331 330 330 328 328 330 329 329 328 326 325 327 326 324 324 324 324 325 326 326 326 325 325 325 325 325 325 323 323 322 320 317 315 315 315 315 314 315 315 315 316 316 316 316 316 316 316 316 318 319 320 321 322 322 322 322 322 320 320 320 319 319 320 320 320 321 322 323 324 325 326 327 326 325 325 325 324 323 322
328 329 330 330 330 331 330 330 330 328 328 327 326 326 326 325 323 323 324 324 324 324 322 323 324 324 325 324 323 324 324 324 323 323 322 321 319 317 316 315 315 316 316 317 316 316 316 317 317 317 317 317 317 317 317 318 319 320 321 321 321 321 321 320 320 320 319 319 318 318 319 319 320 321 323 325 326 327 326 326 326 325 325 324 323
328 328 328 328 328 328 328 328 329 329 328 327 326 324 324 325 320 318 320 321 322 322 319 319 321 323 323 323 322 321 323 323 322 321 321 320 318 317 316 316 316 317 317 317 318 318 319 319 319 319 319 319 319 319 319 319 319 320 320 320 320 320 320 319 319 318 318 317 317 317 317 318 318 319 320 323 326 326 326 325 326 326 325 325 324
328 328 327 327 324 323 324 324 327 328 328 327 326 324 322 322 317 314 317 317 318 317 315 314 317 320 322 322 321 319 319 320 320 320 319 318 317 316 316 316 316 316 316 317 317 318 318 318 318 318 318 318 318 319 318 319 319 318 318 318 317 317 316 316 316 316 316 316 316 317 316 317 316 317 318 322 325 325 325 324 324 325 326 326 325
327 326 326 326 323 320 319 320 323 325 326 326 326 323 320 320 317 314 314 314 313 312 313 312 313 316 319 321 320 319 318 317 317 318 317 316 316 315 315 315 315 316 316 316 316 316 316 316 316 316 316 316 317 317 317 317 316 315 315 315 315 315 316 316 316 316 316 316 316 316 316 316 316 315 316 319 322 323 323 323 324 324 325 326 326
326 326 325 324 321 317 316 318 320 321 323 323 324 322 318 318 316 314 313 312 311 311 314 314 311 313 316 318 319 318 316 315 315 315 315 314 314 314 314 314 315 316 316 316 315 315 315 315 315 315 315 315 315 315 315 316 316 316 316 317 319 320 320 320 320 319 318 317 317 317 316 316 316 316 316 318 320 321 322 323 324 324 324 324 325
328 326 324 322 319 317 315 316 318 319 319 320 321 319 316 315 315 314 313 312 311 312 316 315 312 314 315 316 316 315 315 315 314 313 313 313 313 313 313 313 313 315 315 315 315 315 315 316 316 316 316 315 315 315 316 316 318 319 320 321 322 322 322 322 322 322 322 321 321 321 321 320 320 320 320 321 322 322 322 323 324 324 325 324 325
330 328 324 321 319 317 316 316 317 317 317 318 317 316 315 314 314 314 314 313 312 312 317 317 315 315 316 317 317 317 317 317 315 313 312 312 312 312 312 313 313 314 315 315 317 317 318 318 318 319 319 319 319 319 319 319 320 321 322 322 322 321 321 321 321 322 323 324 324 324 324 323 323 323 323 324 323 323 323 324 324 324 324 324 325
331 330 327 323 320 318 318 316 316 316 316 315 315 315 314 314 314 314 314 314 313 313 315 319 319 318 318 320 320 320 320 320 319 316 314 314 315 315 316 316 316 316 318 319 321 321 321 321 321 321 321 322 322 323 323 322 322 323 322 322 322 321 321 321 321 322 323 324 324 324 324 324 323 323 323 323 323 323 323 323 323 323 323 323 324
332 331 330 327 322 319 319 318 316 316 316 315 315 315 314 314 314 314 315 314 314 314 314 318 321 320 320 320 321 321 322 322 322 320 319 319 320 320 321 321 321 321 322 322 322 323 323 323 323 323 323 324 324 324 324 324 324 323 322 322 321 321 321 322 322 323 323 323 323 323 324 324 323 323 323 323 322 322 322 322 322 322 322 322 322
332 331 332 331 327 323 320 319 318 317 316 316 315 315 315 315 315 315 315 315 315 315 315 317 320 321 321 321 322 323 323 324 323 321 321 323 323 324 324 324 324 323 323 323 323 324 324 324 324 324 324 325 325 325 324 324 324 323 322 321 321 322 322 323 324 323 323 323 323 322 323 323 322 322 322 321 321 321 321 321 321 321 321 321 321
332 332 332 332 331 328 324 321 320 319 319 318 317 317 317 316 317 316 316 316 316 316 316 317 319 321 322 323 323 323 323 324 324 322 322 324 324 325 325 325 325 324 324 324 324 324 324 325 324 324 323 324 325 324 324 324 323 322 321 321 322 322 323 323 324 324 324 323 322 321 321 321 320 320 320 320 320 320 320 320 320 319 319 319 320
332 332 332 332 332 332 330 325 321 321 320 320 320 319 319 319 320 320 320 319 317 316 317 319 320 321 322 322 322 323 324 326 326 324 323 324 325 325 325 325 325 325 325 325 324 324 324 324 324 324 323 323 324 324 323 323 322 322 321 322 323 323 323 323 324 324 324 323 322 321 320 320 320 320 320 320 319 319 319 318 318 318 318 318 317
332 332 332 331 332 333 334 330 325 324 323 322 321 322 322 323 324 325 325 323 320 319 318 320 323 324 324 324 325 325 327 328 327 326 325 325 325 325 325 325 325 325 325 325 324 324 324 324 323 323 323 323 323 323 323 323 323 322 322 323 323 323 322 322 323 323 323 322 321 320 320 320 319 320 319 319 317 316 316 316 316 316 317 317 316
331 331 331 331 332 333 334 334 330 329 328 326 324 325 326 326 327 328 328 326 324 323 322 323 326 327 327 327 327 328 328 328 328 328 327 326 326 325 325 325 325 325 325 325 324 324 324 324 323 323 323 323 322 322 323 322 322 323 323 323 324 322 322 322 323 323 322 321 320 319 319 319 319 319 318 317 315 314 314 314 315 315 316 316 316
331 330 331 331 333 334 335 335 333 332 331 330 329 329 329 329 330 330 330 328 326 326 326 327 327 328 328 328 328 328 328 329 328 328 326 326 326 325 325 325 325 324 324 325 324 325 325 324 324 324 324 323 322 322 323 323 323 323 324 324 324 323 322 321 323 322 321 319 318 317 318 319 319 318 316 314 314 314 313 312 313 314 315 315 315
330 330 331 331 332 334 335 335 334 334 333 333 333 332 332 331 332 332 331 330 328 328 328 329 329 329 328 328 329 328 328 328 328 327 327 326 325 325 326 325 325 324 323 323 324 324 324 324 324 323 323 322 322 322 323 323 324 324 324 323 323 324 322 321 322 321 319 318 315 316 318 319 318 316 314 313 312 310 307 306 307 310 311 310 309
331 330 331 331 333 333 334 335 335 335 334 334 334 334 334 333 333 333 333 332 330 329 328 329 330 330 329 329 328 328 328 328 327 327 327 327 326 326 326 324 324 323 323 323 323 323 323 323 324 323 322 322 322 322 323 323 324 324 324 323 323 324 322 320 321 320 318 316 314 317 319 318 316 314 311 308 305 301 300 300 301 301 302 301 301
332 332 332 332 333 334 334 335 336 335 335 334 335 335 335 334 334 334 333 333 332 330 329 329 329 330 330 329 329 328 328 327 327 327 327 327 327 327 326 325 324 323 324 324 323 324 324 324 324 323 323 322 323 323 323 323 322 322 323 323 323 322 320 319 320 319 317 315 316 318 318 315 313 308 303 300 298 297 297 297 297 296 297 297 297
332 332 333 333 334 334 334 335 335 335 335 335 335 335 335 335 335 334 334 333 333 332 331 330 329 330 330 330 329 329 328 327 327 327 327 326 326 327 326 325 324 324 325 325 325 325 326 326 325 324 324 323 325 325 324 323 322 322 322 321 321 320 318 319 319 318 316 315 317 317 314 310 306 300 296 296 296 296 296 296 296 296 296 296 296
331 332 332 333 333 334 334 334 335 335 335 335 335 335 336 336 335 335 334 334 334 333 332 331 330 330 330 330 330 329 329 328 326 326 325 325 325 326 326 324 325 325 326 326 326 326 326 326 326 325 325 325 326 325 324 323 321 321 320 320 320 318 317 318 318 318 314 315 318 315 309 304 298 296 295 295 296 296 296 296 295 295 296 296 296
330 331 331 331 332 333 333 334 334 335 335 335 335 335 335 335 334 334 335 334 334 333 333 331 330 330 329 329 330 329 329 329 328 326 326 326 326 325 325 324 326 326 326 327 327 327 326 326 326 326 326 326 326 324 323 322 320 320 319 319 318 316 317 318 318 316 312 315 317 310 303 299 295 295 295 295 296 295 295 296 295 295 296 295 295
329 330 330 330 331 332 332 333 334 334 334 334 334 335 335 334 334 334 334 334 334 334 333 332 330 329 329 329 330 330 329 328 327 327 327 327 327 326 326 326 327 327 327 327 326 326 326 326 327 327 327 325 323 322 321 320 320 318 318 318 317 315 316 317 317 313 311 316 315 306 300 297 295 295 295 295 295 295 295 295 295 295 295 295 294
329 330 330 330 330 330 332 332 333 333 333 333 333 333 334 334 334 334 334 334 333 333 333 332 330 329 328 329 329 329 329 329 328 328 328 328 328 327 327 327 328 328 327 326 326 326 326 327 327 326 325 323 321 320 320 319 318 318 317 317 317 316 316 317 315 309 310 314 309 301 298 297 295 294 295 295 295 295 295 295 295 295 295 294 294
328 329 329 330 330 330 331 331 331 332 332 332 332 332 332 332 333 334 334 334 333 333 333 332 331 330 329 329 329 329 329 329 328 328 328 328 327 326 325 327 328 327 327 326 326 326 326 326 325 324 324 322 321 320 319 317 317 317 317 317 317 316 316 316 313 310 309 307 302 298 297 296 295 294 295 295 295 294 294 295 295 295 294 293 293
327 328 329 329 330 330 330 331 331 331 331 331 331 331 332 332 332 333 333 333 332 332 332 331 330 330 329 328 329 330 330 329 328 327 327 327 326 325 326 327 327 327 327 327 327 326 325 324 323 323 322 322 321 319 318 317 317 316 316 317 317 316 316 315 313 311 306 300 298 297 296 296 295 294 295 295 294 294 294 295 295 294 294 293 293
326 327 328 329 329 329 330 330 330 331 331 331 331 331 331 332 332 332 331 331 331 331 332 331 331 330 330 328 327 327 328 329 328 327 326 325 325 327 329 329 328 328 328 327 326 325 324 323 322 321 320 320 319 319 318 317 316 315 315 316 315 314 315 313 312 312 306 298 297 297 295 295 294 294 295 294 294 294 295 295 294 294 294 293 293
323 324 326 327 328 329 329 330 330 330 331 331 331 330 330 331 331 331 331 331 331 332 332 332 332 331 330 329 327 327 326 326 327 327 327 326 326 328 329 328 327 327 326 326 325 323 323 322 320 319 318 318 318 317 317 316 315 315 314 313 313 312 311 310 310 310 307 301 298 296 297 296 293 293 294 294 293 293 294 295 294 294 294 293 293
319 321 324 325 327 327 328 328 329 330 330 331 330 330 330 330 331 331 331 331 331 332 332 332 332 331 330 330 329 328 327 325 326 327 326 327 327 327 326 325 324 324 323 323 323 322 322 321 320 319 316 314 315 315 316 315 313 312 310 309 308 307 306 307 306 304 304 304 300 298 297 295 292 293 293 293 293 293 294 294 294 293 293 293 293
317 320 322 323 324 326 327 328 328 329 329 330 330 330 330 330 331 331 331 331 331 331 332 331 332 331 330 328 328 329 327 325 325 325 325 326 326 325 325 323 322 322 321 321 320 320 320 319 319 317 313 312 312 312 312 311 310 309 307 303 300 300 303 305 302 299 301 303 302 299 298 295 293 293 293 293 292 292 293 294 293 293 293 292 292
314 318 321 323 324 325 327 327 328 329 329 330 330 330 330 330 331 331 331 331 331 331 331 331 331 331 330 328 327 327 327 326 326 325 326 326 325 324 323 322 321 320 320 320 318 317 317 316 315 313 312 311 311 309 308 308 308 305 301 297 295 297 300 302 301 298 299 301 300 299 297 295 295 294 293 292 292 292 293 293 293 292 292 292 293
312 316 319 322 324 325 326 327 328 328 329 329 330 330 330 330 330 331 331 331 331 331 331 331 331 331 330 328 326 326 326 327 326 325 325 324 323 322 321 320 319 318 318 317 316 316 314 312 310 310 310 311 310 308 305 303 302 299 295 293 293 294 296 298 298 298 298 298 298 298 296 295 295 294 292 291 291 291 293 293 292 292 292 292 292
Wind_Speed
14 14 11 9 8 8 7 8 9 10 10 10 10 11 11 12 12 13 13 12 11 12 13 14 15 16 17 16 16 15 15 15 15 15 15 14 14 14 15 15 15 15 16 16 16 16 16 17 17 17 18 18 19 20 19 18 18 18 18 17 16 16 16 16 16 16 18 18 18 19 18 18 18 18 17 16 15 16 16 15 14 16 16 15 13
18 17 14 11 8 8 7 7 7 9 9 9 10 10 11 12 13 13 12 12 11 12 14 14 15 15 15 15 16 16 16 16 16 15 15 15 15 16 16 16 16 15 16 16 16 16 16 16 16 17 18 18 19 19 19 19 19 19 18 17 16 15 15 15 15 16 16 17 17 18 18 17 17 16 15 15 15 14 13 13 13 15 15 14 13
19 19 16 14 11 9 8 6 7 8 9 9 10 10 11 12 13 12 12 12 11 12 14 14 14 14 15 16 16 16 16 16 16 16 16 16 16 17 17 16 16 16 17 16 16 17 16 16 16 17 18 18 18 19 19 20 20 20 19 18 16 15 15 15 14 15 16 16 16 16 17 17 16 15 14 14 13 12 12 12 12 13 13 13 14
19 20 17 15 13 12 11 8 7 9 9 9 10 10 11 12 12 12 12 12 11 12 13 14 14 15 15 15 15 15 15 15 16 16 16 16 17 17 17 17 17 17 17 17 17 17 17 17 17 17 17 17 18 18 19 20 20 20 20 19 18 17 16 15 15 14 15 15 15 15 16 16 15 15 13 13 13 13 13 13 12 12 12 13 14
20 19 17 15 14 13 12 9 8 9 10 10 10 10 11 12 12 13 13 12 11 11 13 14 14 14 14 15 15 14 14 15 16 16 16 16 16 17 17 17 17 17 17 17 16 16 17 17 16 16 16 17 18 18 19 20 20 20 19 19 18 18 17 16 15 13 13 13 13 14 14 13 13 13 13 12 12 12 13 14 13 13 14 14 15
19 18 16 15 14 13 11 9 9 11 11 10 10 11 12 12 12 13 14 13 11 12 13 15 15 15 15 15 15 15 15 15 16 16 16 16 16 17 16 16 16 17 17 16 16 16 17 16 16 15 15 16 17 18 19 20 20 19 19 18 18 18 17 16 15 13 11 11 12 12 13 12 12 12 12 12 12 12 13 14 14 14 15 15 15
18 17 15 15 14 13 11 10 10 12 12 11 11 11 11 12 12 12 13 12 12 13 13 14 14 15 15 14 15 16 16 15 15 15 15 16 16 16 16 16 16 16 16 16 16 16 16 16 15 15 15 15 16 18 18 18 18 18 18 18 18 18 18 17 16 15 14 13 13 14 14 14 14 13 12 13 13 13 13 14 14 14 14 14 14
16 16 15 14 14 12 11 11 11 12 12 12 12 12 11 12 11 11 12 12 13 12 12 13 14 14 14 14 14 14 14 15 15 15 15 16 16 16 16 15 15 15 15 16 15 15 15 15 15 15 14 15 15 17 17 17 17 17 17 17 18 18 18 18 18 17 17 16 15 15 15 14 14 13 13 14 14 13 13 13 13 14 14 14 13
16 15 14 14 13 12 11 11 12 12 12 12 13 12 12 12 11 10 11 12 13 12 12 13 14 14 14 13 13 14 14 14 15 15 15 15 16 15 16 15 15 15 14 15 14 14 14 14 14 14 14 14 14 15 15 15 15 16 16 16 17 18 17 17 17 18 18 16 14 15 15 14 14 13 13 14 14 14 14 14 13 13 14 14 13
15 14 14 15 13 12 11 11 11 11 12 12 13 12 12 12 11 10 11 13 14 13 13 14 14 13 13 13 13 14 14 14 14 15 15 15 15 15 15 14 14 14 14 13 14 13 13 13 13 13 12 12 12 12 13 14 14 14 15 15 16 17 16 16 16 17 17 15 14 14 15 13 13 13 13 14 13 14 13 13 14 13 13 13 13
13 13 14 15 14 12 12 12 12 11 12 12 12 13 12 11 10 10 11 12 13 13 13 13 13 13 13 13 13 13 14 15 15 14 14 14 14 14 14 14 14 14 13 13 13 13 12 13 12 12 12 12 12 11 12 13 13 13 14 14 15 15 15 15 15 16 16 15 14 14 15 14 13 12 13 13 12 12 11 13 15 14 13 13 13
13 14 15 15 14 12 12 12 12 12 12 12 12 12 11 11 11 10 11 12 12 12 12 13 13 12 13 12 11 12 12 12 13 13 13 13 13 13 14 14 14 13 13 13 12 12 11 11 12 11 11 11 12 12 12 12 12 12 13 13 14 14 14 14 14 15 15 14 14 13 13 14 13 11 12 13 12 11 10 12 15 13 13 12 12
15 15 16 15 14 12 11 12 12 12 12 12 11 11 11 11 11 11 12 13 13 12 12 12 11 11 12 10 9 10 10 9 10 12 13 12 12 12 13 13 12 12 12 12 12 11 10 10 10 10 11 11 11 11 11 11 11 11 12 12 13 14 13 13 13 13 14 13 13 12 12 12 13 11 10 13 12 10 9 10 13 13 13 13 13
16 16 15 14 13 12 11 11 12 12 12 12 12 10 10 10 11 12 12 12 12 13 12 11 10 9 10 9 8 9 10 11 10 11 11 11 12 12 12 12 11 12 11 11 11 10 10 10 9 9 10 10 10 10 10 10 9 10 10 11 11 12 12 12 12 11 12 12 12 12 13 12 13 12 10 12 11 10 9 9 14 14 12 12 13
17 17 15 14 12 11 11 11 12 12 12 12 12 11 11 9 10 12 13 12 12 12 13 11 10 9 8 9 10 11 11 11 10 10 10 11 13 12 11 11 10 11 10 10 10 9 9 9 8 9 8 8 8 8 9 8 8 8 9 10 10 11 12 11 11 11 10 11 11 11 12 11 12 12 10 10 10 11 9 9 13 12 10 12 14
18 17 16 14 12 11 10 11 11 11 11 11 11 11 11 8 9 11 11 12 11 11 13 13 11 9 8 10 11 11 10 9 9 9 10 12 12 11 10 10 10 9 9 9 8 8 8 8 8 7 7 6 6 7 7 7 7 7 8 8 9 10 11 11 11 10 10 10 10 9 10 10 11 12 10 9 9 11 9 9 12 10 10 11 12
18 18 17 15 13 12 10 11 10 10 10 11 11 10 10 8 7 8 7 9 9 9 12 13 11 10 9 9 10 9 9 8 8 9 11 12 11 10 10 10 9 9 9 9 8 8 8 8 7 5 4 4 4 5 5 5 6 6 7 8 9 10 10 11 11 11 11 10 10 9 9 10 10 11 10 10 11 12 8 8 10 9 9 9 10
19 19 18 16 14 13 11 11 9 9 10 11 10 9 8 6 6 6 6 7 7 8 11 12 11 10 8 7 8 8 8 9 8 8 9 10 9 9 8 8 9 9 9 9 9 8 7 7 5 4 3 3 3 4 4 4 5 6 7 8 9 10 10 11 12 12 12 12 12 11 10 10 10 10 11 11 12 12 9 7 9 8 8 9 10
19 19 18 17 16 14 12 11 9 9 9 10 10 8 6 5 5 5 5 5 6 8 10 11 10 9 8 7 6 6 7 7 7 7 7 7 8 9 9 10 10 10 10 10 9 8 7 6 6 5 5 4 4 4 4 4 4 5 6 7 8 9 10 11 12 12 12 12 12 12 12 10 10 10 11 12 12 12 10 9 9 10 10 10 11
17 17 17 18 17 15 14 12 11 9 9 10 9 7 5 5 5 5 6 5 7 9 9 10 9 8 7 6 6 5 6 5 5 6 6 6 8 9 10 11 11 11 11 11 10 9 8 7 7 6 6 6 6 6 5 5 5 5 6 7 7 8 9 11 11 12 12 12 12 13 13 12 12 11 11 13 13 13 12 11 12 12 12 10 12
16 15 16 18 18 16 15 14 12 11 10 10 9 7 6 5 5 5 6 6 7 8 8 9 9 8 7 6 6 6 6 5 5 4 4 5 6 8 9 9 9 10 10 10 10 9 9 8 8 7 7 7 8 7 7 6 6 6 6 7 7 8 9 10 11 12 12 13 13 13 14 14 13 13 12 13 13 14 14 14 14 14 13 11 12
16 16 15 18 19 18 16 15 14 13 12 11 10 8 8 7 6 6 6 7 7 7 6 8 9 9 8 7 6 6 6 5 5 4 4 4 5 7 7 7 8 8 8 8 8 8 7 7 7 7 7 7 7 7 7 7 6 6 7 7 8 8 10 11 12 12 13 13 14 14 14 14 14 14 13 13 14 15 15 15 15 15 14 11 12
16 17 16 17 19 19 17 16 16 15 14 12 11 9 8 8 7 6 7 7 7 6 5 6 8 9 9 8 6 6 6 6 5 4 4 4 5 5 6 6 6 6 6 6 6 5 5 5 6 6 6 6 6 6 6 6 7 7 8 9 10 11 12 13 13 13 13 13 13 13 13 14 14 14 14 14 14 16 16 16 16 16 16 14 14
16 17 16 16 17 19 18 17 17 16 15 14 12 11 9 9 8 7 7 7 7 6 5 6 7 8 9 8 7 6 6 6 5 5 4 4 4 4 4 4 4 4 3 3 3 3 3 4 4 5 5 6 6 6 7 7 8 9 10 11 12 14 14 15 15 14 14 14 13 13 13 14 14 14 15 15 15 16 16 16 16 17 17 17 17
15 15 16 17 18 20 19 18 18 17 16 14 13 11 10 10 9 8 8 7 7 7 6 5 6 8 9 8 8 7 6 6 6 5 4 4 3 3 3 3 3 2 2 2 2 2 3 4 4 5 6 6 7 7 7 8 9 10 11 12 13 13 15 16 16 16 16 15 15 15 15 15 15 15 15 15 16 16 17 17 17 17 17 18 18
16 16 17 19 19 20 19 19 18 17 16 15 13 12 10 11 11 10 9 8 8 7 6 6 7 8 9 9 8 7 7 6 5 5 4 3 3 2 2 2 2 1 1 1 2 3 3 4 4 5 6 7 8 8 9 9 9 9 11 12 12 12 14 15 16 17 18 17 15 15 16 16 16 16 16 16 16 17 17 17 18 18 18 18 18
18 18 18 20 20 20 19 19 19 18 17 15 14 13 12 12 11 11 10 9 8 7 7 6 7 8 9 8 8 7 6 6 5 4 3 3 2 2 1 1 1 2 2 2 3 4 4 4 5 5 6 7 8 8 9 9 9 10 12 13 13 14 15 16 16 16 18 18 16 15 16 16 17 17 17 17 17 17 17 17 17 18 18 18 18
19 19 20 21 21 21 19 19 19 18 17 16 15 14 13 12 12 12 11 10 8 7 6 6 7 7 7 7 6 6 5 5 4 4 4 3 2 2 2 2 2 2 3 3 4 4 5 5 6 6 6 6 7 7 7 9 10 11 13 13 13 15 16 16 15 15 18 18 16 16 16 16 17 17 17 17 17 17 17 16 16 17 17 18 18
18 19 20 21 21 21 20 19 19 18 17 16 16 15 14 13 12 12 11 11 9 8 7 7 6 6 6 6 5 5 4 4 3 4 4 3 3 3 4 4 3 3 3 3 3 4 5 5 6 6 7 7 8 8 7 8 10 11 13 14 15 16 15 15 15 16 17 17 17 17 16 16 16 16 16 17 17 17 16 16 16 16 16 16 17
19 17 18 20 21 21 21 20 19 18 18 17 16 15 14 14 13 12 12 11 10 9 8 8 6 5 5 5 4 3 3 3 2 3 3 3 2 3 3 3 4 3 3 3 3 4 5 5 6 7 8 9 9 9 9 10 11 13 15 16 17 16 15 16 17 17 17 17 18 17 16 15 15 15 15 15 15 15 14 14 14 14 14 15 15
20 18 17 18 20 21 21 21 20 19 18 17 16 15 14 14 13 12 11 11 10 10 9 8 8 7 6 5 3 2 1 1 1 1 1 1 1 1 2 2 3 3 3 3 4 5 5 6 7 9 10 10 10 10 12 14 15 15 15 15 15 15 16 17 17 16 16 17 16 15 14 13 13 13 13 13 13 14 14 14 14 14 15 15 15
21 21 20 18 19 22 22 21 21 20 19 18 16 16 15 14 13 12 11 10 10 11 10 10 8 7 7 6 4 2 2 1 0 0 0 1 1 2 3 4 4 4 5 5 5 6 6 8 9 11 11 12 12 11 13 16 16 15 14 13 15 17 17 17 16 15 16 16 15 14 13 13 14 14 13 13 14 15 16 16 16 16 16 17 17
23 23 21 20 21 23 23 23 22 21 20 19 18 17 16 14 13 12 11 10 11 11 11 10 8 7 7 6 4 3 2 2 1 1 1 2 3 3 5 5 5 6 6 7 8 8 9 10 10 12 12 13 13 13 14 16 16 14 14 16 18 18 17 16 15 14 15 14 12 13 13 14 15 14 12 13 15 16 17 17 17 17 17 17 18
24 23 23 22 23 24 24 25 24 22 21 20 19 18 17 16 14 12 11 11 12 12 11 10 9 8 7 6 5 4 4 3 2 2 2 3 3 4 6 6 6 6 7 8 8 10 10 10 12 13 13 13 13 14 14 15 14 15 16 17 18 17 16 15 13 13 13 11 11 13 13 14 14 12 13 15 16 16 16 16 17 17 17 17 18
25 24 25 24 24 25 25 26 26 24 23 22 21 20 18 17 15 13 12 11 12 12 11 10 9 8 7 6 6 5 5 4 4 5 5 5 5 6 6 6 7 9 10 9 9 10 9 11 13 13 12 11 12 13 13 14 15 16 17 17 18 16 15 15 12 11 10 10 11 13 13 12 11 12 16 17 17 15 15 17 17 16 16 17 17
27 27 27 25 24 25 26 26 27 26 25 24 22 21 20 18 17 15 13 13 13 13 12 11 10 9 8 7 7 6 6 6 7 7 8 7 7 7 7 7 9 11 9 9 10 10 9 12 12 11 10 11 11 11 13 15 15 16 15 16 16 15 15 14 11 9 9 10 14 14 11 9 10 14 17 17 16 16 16 17 16 16 15 16 17
30 29 28 27 25 25 26 27 27 27 26 25 23 22 21 20 19 17 15 15 14 14 13 12 11 11 10 9 8 8 7 7 8 9 9 9 9 9 8 9 9 9 7 7 8 7 8 11 10 10 9 10 11 12 14 14 14 13 12 13 13 13 14 12 9 8 7 11 16 12 9 9 12 16 16 16 16 17 17 17 17 16 16 16 17
29 30 29 28 27 26 26 27 27 27 27 26 25 23 22 21 20 19 18 17 16 15 14 14 13 12 12 12 10 10 9 8 9 10 9 9 10 9 7 9 9 7 6 7 6 6 8 10 11 10 9 11 12 13 14 14 14 13 10 10 11 13 12 9 8 6 7 17 15 8 9 12 14 15 16 17 17 18 18 18 18 18 18 19 19
28 29 29 28 27 27 27 27 28 28 28 27 26 25 24 23 23 22 21 20 19 17 16 17 16 14 13 13 12 12 12 9 9 10 9 10 11 10 9 10 10 8 8 10 9 8 9 10 10 10 9 11 13 12 11 12 14 11 10 12 12 12 8 6 5 3 11 17 9 8 12 14 15 16 17 18 18 18 18 19 19 19 19 19 19
28 28 29 29 29 29 28 28 29 29 28 28 27 27 26 26 26 25 24 23 22 20 18 17 17 16 14 13 13 14 15 12 12 11 10 11 11 12 11 10 11 11 12 13 12 11 10 10 10 10 9 10 12 10 8 11 12 10 12 13 11 9 5 5 1 1 14 13 6 11 15 13 16 17 19 19 17 18 19 18 19 19 19 18 18
28 29 29 31 31 30 30 30 30 30 30 30 29 29 28 27 26 26 26 25 23 22 21 18 18 17 15 15 15 15 16 15 13 11 10 10 9 10 10 9 11 13 14 14 13 11 10 11 11 11 11 10 9 6 7 10 10 10 12 10 9 8 6 3 3 3 15 7 4 14 14 14 18 19 20 18 17 19 19 18 19 18 17 18 18
30 31 31 32 32 31 32 32 31 31 31 31 31 30 30 29 27 26 26 25 24 24 23 20 19 18 17 17 16 16 17 16 15 14 14 14 12 12 12 12 15 15 15 14 13 11 11 12 12 11 9 6 3 3 6 8 6 9 9 7 7 7 6 3 3 10 15 4 5 14 13 14 18 20 21 18 17 21 20 18 19 17 17 18 19
33 33 33 33 32 33 33 33 32 32 32 32 32 31 30 29 27 26 25 24 24 23 22 21 20 19 18 18 18 18 18 16 16 16 15 14 14 14 14 15 16 16 15 13 12 12 12 12 10 7 3 1 2 2 6 7 6 8 6 4 4 5 5 2 7 17 13 3 8 13 12 15 19 22 22 18 19 22 20 19 18 17 17 19 19
32 33 33 34 34 35 35 34 34 34 33 33 32 31 30 28 27 27 25 24 24 23 23 23 22 20 19 19 19 18 18 18 18 17 15 13 14 15 15 15 14 13 12 11 11 10 8 5 3 1 0 1 1 2 5 7 7 6 4 1 1 2 2 4 14 18 10 8 11 13 13 15 20 24 22 20 21 22 21 18 17 17 18 19 20
31 33 35 36 37 37 37 36 36 35 35 34 32 31 30 28 27 25 24 23 23 22 22 24 23 21 19 18 18 18 17 18 19 17 14 13 15 15 15 14 13 13 13 12 10 6 3 1 1 3 4 4 2 2 2 4 5 5 3 0 1 1 1 4 10 10 10 13 12 13 14 16 22 25 22 21 22 23 20 18 17 18 19 20 21
32 35 36 37 38 38 38 37 36 36 36 35 33 32 31 30 28 26 24 23 22 22 23 23 22 21 19 17 16 17 17 18 18 16 15 14 16 16 16 16 15 14 12 10 7 5 3 3 5 7 8 6 4 2 0 1 2 3 2 2 1 1 2 4 4 4 10 12 9 12 13 16 23 24 21 22 22 22 20 17 18 19 20 22 23
35 36 36 36 37 37 38 37 37 37 36 36 34 33 32 31 30 30 28 27 25 24 24 23 22 21 20 17 16 17 16 16 15 16 17 16 14 13 11 10 9 8 8 8 7 5 4 6 8 9 9 6 5 3 2 2 1 1 1 2 3 4 4 3 1 2 6 6 9 11 10 15 23 22 20 20 22 21 17 16 19 20 21 23 24
36 36 35 35 36 37 38 37 37 37 36 36 36 35 34 32 32 31 31 30 29 28 27 25 23 22 20 19 19 18 15 14 13 13 15 13 10 10 8 7 6 6 6 6 6 6 7 9 10 11 10 7 6 5 4 3 2 2 2 2 3 3 2 3 3 1 2 3 8 8 10 19 24 22 17 15 19 18 13 13 17 19 20 21 23
35 35 35 35 35 36 37 36 36 36 36 36 36 36 35 34 33 33 32 31 31 29 28 26 25 23 21 20 20 18 15 14 14 13 13 12 11 11 9 7 6 6 6 7 8 10 11 12 13 12 10 6 5 5 4 2 1 1 0 2 3 4 6 5 2 2 1 3 3 4 11 20 23 23 18 14 18 16 10 9 14 16 17 18 20
33 34 33 33 34 34 35 35 36 36 36 36 36 36 36 35 34 34 33 32 31 29 27 26 25 24 22 20 18 17 16 15 15 15 14 14 13 10 9 8 9 9 10 11 12 12 12 12 11 8 5 3 3 3 4 4 3 4 4 5 7 7 6 4 1 4 2 2 3 6 9 12 15 20 19 19 20 17 10 8 14 17 15 17 18
28 30 31 31 32 33 33 35 35 36 35 36 36 36 36 36 36 35 35 34 32 31 29 27 26 25 23 20 17 17 17 16 17 18 17 15 12 9 9 11 13 13 12 12 11 10 9 7 6 4 4 4 4 5 7 7 6 6 7 7 8 7 5 3 2 4 3 1 3 6 9 11 12 15 21 23 22 18 11 10 17 19 17 17 16
Wind_Direction
159 165 151 134 127 117 121 123 118 116 114 112 110 108 109 110 107 102 100 95 90 85 82 81 82 84 84 83 82 82 83 82 83 83 83 87 90 90 89 83 80 80 79 76 74 73 71 73 76 74 74 74 74 76 78 78 78 77 76 77 79 80 77 75 76 75 75 75 75 75 73 71 70 69 68 67 65 60 53 48 49 49 44 41 43
155 157 150 142 136 126 122 121 129 123 117 117 114 114 115 114 110 104 100 93 89 85 82 84 85 86 87 84 82 83 82 82 82 82 82 84 87 87 89 89 85 82 81 79 77 76 75 76 79 79 78 76 74 75 76 76 77 78 77 77 78 77 75 74 76 75 74 74 73 73 71 67 62 62 63 63 63 60 53 44 39 43 38 29 27
148 150 150 146 144 144 132 126 145 139 128 123 120 120 119 116 112 105 98 94 89 84 86 91 92 90 90 87 85 85 84 85 83 81 81 81 83 84 88 91 87 83 82 80 77 75 76 78 79 79 77 76 75 75 75 74 73 74 75 76 77 76 74 73 72 72 71 71 69 69 68 64 57 54 55 55 54 49 41 35 29 34 33 25 21
145 147 149 149 150 155 150 148 150 145 142 132 127 123 122 119 113 108 100 96 92 86 86 90 96 94 91 89 88 87 86 87 84 83 83 81 82 83 87 91 89 87 85 82 78 76 77 79 79 79 78 76 74 73 73 72 72 72 74 75 75 74 71 71 70 68 66 64 61 59 56 55 54 47 45 45 45 41 32 23 21 29 27 25 27
146 148 149 152 154 157 156 155 143 142 143 133 130 126 125 121 114 109 101 98 95 88 86 91 96 93 93 92 89 88 87 88 86 85 85 85 85 85 88 91 90 89 86 82 79 76 76 78 79 80 79 76 71 71 73 73 73 72 72 72 72 70 67 65 64 61 57 54 48 47 45 45 49 42 35 33 32 34 33 27 26 33 33 34 38
150 150 151 153 154 156 156 150 137 138 138 131 129 128 126 119 112 106 103 102 98 93 92 97 97 94 94 90 87 90 88 85 85 84 85 85 85 85 88 92 92 91 87 82 79 75 74 76 79 80 79 76 73 73 75 75 73 72 71 70 68 64 61 58 57 56 52 48 43 44 45 44 50 43 30 28 28 30 39 40 40 42 41 40 41
155 152 153 155 153 154 152 143 134 135 135 132 130 128 124 114 110 106 108 108 102 101 98 96 96 96 96 93 90 92 89 85 86 85 84 84 84 85 87 91 92 91 87 82 79 76 74 76 77 79 80 78 79 77 75 74 73 71 69 67 63 59 56 55 56 56 54 52 51 53 53 50 50 46 40 37 36 41 46 47 46 45 43 40 40
160 156 156 157 154 149 142 138 132 134 135 134 132 129 121 115 114 109 111 110 106 106 100 94 97 99 97 96 92 91 88 82 86 86 84 83 83 84 86 89 91 92 89 83 79 77 76 76 77 81 83 82 83 79 75 74 73 70 68 64 59 56 55 55 55 54 53 54 56 57 55 51 50 51 52 44 39 45 48 46 45 41 39 38 39
164 159 158 155 149 139 133 136 133 134 136 134 134 129 124 122 118 110 109 110 110 104 99 99 101 101 97 94 88 87 87 84 86 85 84 84 84 83 84 87 91 92 90 85 79 77 76 74 77 81 83 84 82 79 76 75 73 70 67 63 59 57 55 55 54 53 52 53 56 57 54 51 52 52 48 42 40 46 48 43 38 36 36 35 33
167 160 157 151 141 134 134 136 135 136 136 135 134 129 125 125 120 113 110 113 113 103 100 102 102 101 96 93 90 89 93 94 90 87 87 87 86 86 87 88 89 91 91 89 83 78 75 75 75 78 84 88 84 80 78 77 75 71 67 62 59 56 55 53 52 52 51 52 55 57 56 52 52 51 43 40 41 44 43 37 34 35 34 32 29
167 158 155 148 140 139 138 135 136 137 137 137 134 131 128 126 124 117 112 115 114 106 103 104 103 102 98 95 96 94 96 96 94 93 91 87 88 88 87 85 87 92 94 92 87 80 75 76 77 77 83 88 87 84 80 80 77 72 67 61 56 53 53 52 51 52 50 52 55 57 55 48 47 47 41 36 36 35 33 36 34 30 27 25 24
165 158 154 148 144 144 139 135 135 137 139 138 134 132 131 125 119 111 107 111 111 108 106 107 105 105 107 101 98 96 93 97 96 96 92 89 88 89 87 83 84 87 92 94 89 83 78 77 79 79 81 84 83 81 80 80 77 71 65 58 53 49 50 51 51 53 50 50 51 53 49 44 42 39 38 30 29 33 32 35 30 24 23 19 19
161 158 155 150 149 148 140 138 138 141 141 136 134 131 131 122 112 106 104 108 112 112 110 112 110 108 109 102 100 96 88 97 104 97 90 91 90 90 88 85 84 85 93 98 92 87 84 79 81 84 82 81 80 78 79 79 75 67 61 53 48 45 47 48 50 52 50 49 47 45 41 41 40 33 32 25 25 34 29 24 18 18 22 19 19
159 159 157 153 153 152 145 144 144 144 141 136 135 132 129 122 118 115 109 114 119 116 113 113 112 107 107 105 108 101 91 97 109 105 95 92 90 88 87 87 86 88 95 99 96 92 89 82 82 88 84 81 78 77 80 79 72 63 55 46 42 40 39 40 43 45 45 46 45 42 36 35 35 29 23 21 24 27 17 5 7 11 18 19 16
160 159 157 156 154 155 150 147 148 146 143 140 139 134 132 126 128 128 122 126 129 126 121 115 113 118 118 114 112 105 100 97 98 103 103 97 91 89 88 90 90 91 98 101 102 100 95 90 91 93 86 81 78 77 77 75 68 59 49 41 37 31 29 31 32 34 36 39 39 38 34 29 29 26 19 21 20 16 7 350 358 8 14 15 12
162 161 159 159 158 158 154 150 150 150 147 147 147 142 140 134 133 137 137 139 137 139 136 126 124 134 128 116 115 108 104 99 89 91 104 104 99 98 92 89 90 92 97 100 104 105 102 98 102 101 90 81 72 70 67 64 58 50 41 34 29 23 21 22 22 24 27 28 28 28 27 23 22 22 16 15 6 2 357 343 353 4 7 8 9
165 164 163 162 163 162 159 157 152 153 153 151 153 150 147 144 143 143 148 154 146 143 146 143 142 147 138 121 120 117 113 111 100 93 101 105 102 105 99 94 96 100 100 97 98 98 96 95 104 110 96 79 62 58 51 46 38 32 27 22 18 15 14 14 14 16 17 16 15 15 17 15 14 14 5 1 355 357 356 341 348 351 353 355 359
168 168 168 166 166 166 164 163 159 157 158 155 156 159 158 158 163 161 157 165 163 153 152 155 154 153 151 138 125 124 123 117 109 101 102 99 92 92 92 93 94 96 96 93 94 92 93 95 101 100 85 70 57 54 43 33 22 15 10 9 8 9 10 10 9 8 8 6 5 6 6 7 7 4 354 351 351 356 357 341 342 337 336 334 342
171 172 172 171 169 171 171 170 171 168 166 162 160 165 170 175 180 182 171 159 160 162 160 163 165 157 156 157 145 135 131 121 113 109 106 93 81 81 83 86 85 86 89 91 95 95 95 94 90 81 72 65 55 52 43 31 17 9 3 3 4 6 8 8 9 6 4 2 1 2 1 359 359 355 343 342 342 345 348 339 335 326 324 318 324
172 176 174 175 174 175 176 175 178 178 176 172 169 171 174 184 184 183 178 163 156 161 166 170 175 170 163 161 162 158 151 141 128 120 108 90 82 84 83 84 86 89 92 92 93 91 91 86 81 74 66 60 54 50 45 39 27 17 10 7 7 6 7 6 6 4 3 0 359 357 355 353 351 346 334 333 333 336 340 336 331 325 322 308 308
175 178 177 180 179 179 180 179 180 182 184 182 181 182 184 191 193 189 183 178 168 164 170 177 181 183 181 171 167 172 171 162 147 135 116 95 87 87 85 88 93 95 94 90 88 86 85 79 76 71 64 59 53 49 45 42 34 25 18 12 8 3 1 1 360 359 358 357 355 351 348 346 344 340 332 328 328 331 335 332 330 328 326 310 301
176 179 182 183 181 181 182 182 184 184 189 191 191 192 194 196 195 190 179 178 179 175 176 182 188 187 187 182 174 176 179 174 161 146 129 108 93 89 89 94 98 97 93 89 87 84 81 76 71 64 58 53 47 43 38 34 27 19 12 5 359 355 353 352 351 351 351 350 348 346 341 338 338 336 332 329 327 328 330 329 327 327 328 317 300
178 181 184 184 183 182 183 185 185 188 192 195 198 199 196 192 187 179 170 173 179 184 184 186 191 191 190 187 179 175 176 176 169 155 139 119 98 92 93 98 100 97 92 89 86 82 77 66 58 51 44 38 33 28 23 18 11 5 0 356 352 352 351 349 348 346 344 342 339 337 333 332 333 333 332 328 324 324 324 324 324 324 325 320 309
183 185 184 184 184 183 183 185 185 187 192 196 199 201 194 188 185 179 174 176 177 179 181 182 185 189 189 186 180 169 163 164 162 161 150 128 110 104 103 102 105 101 95 89 77 67 57 43 35 28 23 19 15 14 11 8 5 1 358 359 359 358 356 353 348 343 339 336 334 332 330 330 331 331 331 325 320 320 319 319 320 320 321 321 319
187 187 188 187 185 184 184 184 186 186 190 195 196 198 193 187 187 186 184 180 177 172 166 165 167 174 179 178 175 164 152 151 154 157 148 136 127 121 118 110 110 110 104 78 41 26 19 15 14 11 9 8 8 8 7 7 7 5 6 7 2 357 355 352 347 343 337 332 332 332 330 330 329 328 328 324 321 319 318 317 316 316 316 317 317
196 192 192 192 189 187 186 185 186 186 187 192 193 194 191 190 190 189 189 183 177 172 164 156 152 156 162 163 158 150 141 138 141 146 146 146 151 148 142 128 116 104 81 39 14 7 8 13 15 11 10 12 13 11 10 11 7 2 1 356 346 339 339 337 335 336 334 329 326 326 326 325 325 325 325 323 322 320 318 317 315 314 314 313 313
203 200 196 195 193 190 189 188 188 186 186 189 191 193 191 192 192 191 191 186 181 178 173 163 158 153 150 149 143 137 131 125 124 130 141 149 155 155 133 113 93 80 65 48 39 35 32 31 24 16 14 15 18 16 9 4 356 346 341 336 331 331 332 329 325 324 326 325 322 322 323 323 322 322 321 321 322 322 320 318 317 315 314 313 313
203 204 200 197 197 195 193 192 192 189 187 187 190 191 192 192 193 194 191 188 190 187 185 180 175 167 157 152 144 139 128 117 111 110 120 122 113 90 70 49 49 66 60 52 48 41 32 27 20 14 11 11 15 11 355 343 338 332 329 329 329 329 331 330 325 318 319 324 326 326 327 326 326 324 323 323 324 324 323 321 319 317 316 314 313
205 205 202 201 199 198 199 197 196 193 190 189 190 191 192 193 195 197 193 192 195 193 195 194 188 180 172 165 152 144 127 113 106 102 104 101 91 73 62 54 47 40 43 36 28 27 18 14 11 9 6 360 0 360 351 338 330 327 324 323 324 325 327 327 325 321 323 329 332 331 330 330 329 328 326 325 326 326 327 325 323 321 320 317 316
208 207 203 204 202 202 204 202 200 197 195 193 193 193 193 194 197 198 197 196 196 198 201 200 199 190 181 175 161 146 124 108 99 107 105 98 87 66 57 51 40 21 20 15 4 4 3 6 4 360 356 350 348 348 343 332 326 324 319 317 318 320 323 325 327 328 330 334 336 336 337 336 336 336 334 332 333 335 337 338 336 335 332 329 325
209 210 208 207 204 205 207 206 205 202 201 200 198 198 198 199 199 201 204 202 200 202 203 205 208 206 202 197 188 175 148 110 94 118 114 113 85 37 12 13 13 352 348 347 343 344 351 355 345 339 338 339 339 336 327 320 323 326 320 318 319 320 323 329 334 335 336 338 342 345 348 351 354 354 352 352 353 355 356 354 352 350 348 345 342
209 212 212 211 210 210 210 209 208 207 207 207 206 206 207 206 204 207 210 209 208 207 208 210 213 215 217 220 224 223 210 211 194 186 192 224 306 328 338 342 337 328 325 326 325 325 332 332 327 327 328 330 329 324 318 318 324 328 329 329 326 326 330 334 338 338 337 339 347 354 1 7 6 2 2 4 3 1 358 354 352 350 350 351 349
210 214 215 215 216 216 214 214 211 210 211 212 212 211 212 211 208 211 212 213 214 212 213 214 214 216 217 221 222 214 214 223 237 256 261 289 314 327 335 334 328 325 320 317 314 313 316 315 318 319 318 320 319 316 314 316 322 324 329 332 330 333 337 339 342 343 342 345 357 7 10 8 2 359 2 1 357 354 351 349 347 346 346 347 348
213 214 216 218 220 220 217 216 215 213 213 215 215 214 215 213 211 212 212 214 217 216 215 214 214 213 214 217 214 215 226 237 251 272 292 302 311 318 317 309 309 315 312 310 306 304 306 309 314 312 311 311 310 312 311 315 321 324 328 329 331 339 345 345 346 348 353 4 15 14 7 1 358 0 359 353 351 353 352 351 348 347 346 345 344
215 216 218 219 221 222 219 218 217 216 216 217 218 217 217 216 215 215 215 216 219 220 216 213 213 212 217 220 221 230 241 252 267 276 281 284 289 295 295 295 306 307 296 293 296 297 299 304 311 314 314 311 310 313 315 320 325 327 327 326 330 337 345 350 351 356 11 23 17 6 359 360 3 360 352 348 349 354 354 353 351 349 347 345 342
218 219 221 221 221 223 222 219 219 219 218 219 220 220 220 220 221 221 220 221 222 223 219 218 217 217 222 226 233 246 254 263 267 269 271 274 279 279 285 300 310 308 293 285 288 292 297 300 308 318 317 313 314 316 321 330 334 330 322 319 324 331 341 351 358 10 31 24 2 358 6 13 6 354 349 350 353 355 357 358 357 355 352 347 345
223 224 225 225 224 224 223 221 221 221 221 221 222 222 223 223 225 225 224 225 226 228 225 224 223 223 228 232 238 242 249 261 262 263 263 265 269 267 279 293 296 298 293 287 287 289 297 300 310 317 312 315 317 320 330 337 338 332 322 320 327 334 342 353 5 22 37 5 354 6 28 15 358 353 355 0 1 1 4 5 4 3 0 355 353
228 229 231 231 231 229 226 224 224 225 224 224 225 225 225 225 227 227 228 228 229 231 231 231 229 229 231 232 237 240 241 251 254 254 255 259 261 259 274 288 286 286 281 280 280 283 294 300 309 312 315 320 316 322 333 335 332 328 330 336 340 342 344 356 10 36 18 354 1 38 28 2 358 2 6 9 7 7 8 7 7 5 3 2 360
229 231 233 234 234 233 231 229 227 228 228 228 228 228 229 229 229 230 230 231 231 231 233 235 233 233 234 232 238 239 231 241 258 253 255 263 259 256 271 282 279 277 279 280 279 285 293 296 299 301 314 318 313 320 327 327 326 325 335 342 340 341 352 11 14 53 5 356 26 47 7 2 10 12 13 12 12 13 9 8 8 5 5 6 7
229 231 233 233 233 232 231 231 229 229 229 229 229 229 229 230 231 231 232 232 232 232 234 237 238 237 238 237 241 238 230 251 271 255 253 262 255 255 264 271 269 271 281 287 290 289 289 292 289 289 300 306 311 323 326 327 328 326 334 340 343 351 13 25 48 46 359 4 55 16 2 15 19 16 15 15 17 14 10 10 9 7 9 14 16
228 229 230 231 231 231 230 231 230 229 229 229 229 228 227 227 228 229 231 234 235 234 233 234 237 237 239 240 242 240 237 254 271 256 252 254 245 251 261 266 266 269 277 287 292 285 282 289 290 292 299 302 311 328 331 331 337 337 336 341 357 13 27 33 173 343 357 14 39 360 7 24 18 15 14 14 17 13 11 12 10 12 17 19 18
225 226 228 230 231 231 231 232 232 230 230 231 230 229 229 229 229 231 233 237 238 237 234 234 235 235 238 240 241 242 241 249 260 258 256 250 243 249 256 263 267 270 275 278 278 276 280 287 286 289 296 310 338 6 345 345 354 346 341 341 357 17 32 72 207 342 2 39 357 356 13 21 14 12 10 12 14 10 12 12 12 19 22 19 17
225 225 227 228 229 230 231 231 232 231 232 232 231 232 233 234 235 237 238 239 240 240 239 237 236 235 236 237 239 242 242 244 247 249 255 252 251 255 256 263 269 270 270 269 271 277 283 285 282 278 275 352 51 29 353 356 360 356 357 352 355 0 11 36 325 341 3 28 346 1 16 13 10 7 7 10 10 9 12 13 15 23 21 19 17
224 224 224 225 227 228 229 229 230 231 233 233 233 235 236 238 238 238 238 238 240 242 239 235 233 232 232 234 236 236 239 244 247 251 257 254 255 259 257 261 265 261 260 265 274 279 278 279 286 293 356 5 15 357 346 349 0 15 16 333 359 343 337 355 333 335 355 357 353 9 12 5 3 3 5 8 7 8 12 16 22 24 20 17 15
222 223 223 224 225 227 228 228 229 230 231 233 234 234 233 232 231 230 230 231 232 233 230 226 223 222 225 232 237 237 240 245 250 254 251 244 248 255 255 257 259 256 260 265 264 251 219 227 313 316 318 312 300 330 348 351 5 23 24 208 162 325 257 332 329 324 340 348 358 9 5 359 357 360 3 4 6 9 13 20 26 25 19 16 12
224 225 226 226 225 227 228 227 227 228 230 231 232 231 228 226 223 220 218 217 219 221 222 221 220 219 225 236 241 239 241 243 246 247 240 237 246 254 257 255 254 253 252 246 229 205 203 268 293 297 298 289 283 290 192 102 34 21 45 134 163 221 242 311 319 301 326 337 351 358 357 351 351 357 2 2 5 10 16 22 23 22 17 12 8
226 228 227 226 225 226 227 226 226 227 228 229 229 227 224 222 221 220 217 216 216 219 224 226 227 229 232 239 239 234 236 241 245 243 236 237 245 249 245 235 227 220 212 206 202 209 246 274 281 287 285 273 279 288 232 176 167 323 298 217 249 256 257 280 232 285 319 320 328 339 345 341 345 355 2 3 3 9 20 24 20 17 13 8 3
228 227 225 223 225 226 226 225 225 226 226 226 226 225 223 221 220 220 219 219 219 222 226 226 228 229 228 231 230 224 226 235 242 240 232 230 227 215 203 191 189 190 192 199 213 233 255 267 274 282 278 261 263 270 257 235 214 242 262 265 270 256 225 168 166 263 254 279 317 328 329 332 341 352 360 1 0 6 18 21 15 9 6 3 359
227 226 225 224 225 225 224 224 224 225 225 224 224 224 224 224 221 219 219 221 222 224 225 223 222 223 225 228 225 220 222 228 235 235 223 212 204 202 204 210 221 222 223 235 244 249 257 263 268 275 273 257 250 245 233 222 156 115 59 48 70 96 115 137 149 354 237 251 302 315 323 332 339 347 356 354 352 2 12 13 8 2 0 358 354
226 226 225 224 224 223 222 222 223 224 223 223 222 223 224 223 221 219 218 220 221 221 221 220 218 219 222 224 220 217 218 220 226 223 209 201 200 206 219 236 251 254 253 257 255 252 255 258 259 261 253 223 210 173 144 134 107 91 87 79 77 88 109 134 13 15 19 250 275 295 317 330 327 334 348 347 348 360 10 6 359 355 356 354 350
226 224 222 222 222 222 221 221 222 223 222 222 221 222 222 221 221 220 220 220 219 217 216 215 215 214 215 216 212 209 211 218 221 209 197 195 200 216 239 254 262 257 250 248 241 239 244 241 233 216 180 161 148 127 120 119 116 109 96 83 77 81 87 83 38 21 25 323 293 297 310 323 311 315 334 341 347 358 8 5 355 352 354 352 344